When you browse on this site, cookies collect data to enhance your experience and personalize the content and advertising you see.
Visit our Privacy Policy to learn more. By continuing to use the site, you agree to this use of cookies and data.
  • In Spain
  • List of Countries
  • For 7 days
  • Water Temperature
  • Weather Map
  • Weather Widgets
  • user-avatar
    Login

    Hourly Weather Vladimirec

    Today, 4 June, Thursday

    Time Temperature Precipitation Wind Pressure Humidity
    00:00 +6°C° 0 mm 2 mps 736 mmHg 95%
    01:00 +6°C° 0 mm 2 mps 736 mmHg 95%
    02:00 +6°C° 0 mm 2 mps 736 mmHg 96%
    03:00 +6°C° 0 mm 2 mps 736 mmHg 96%
    04:00 +6°C° 0 mm 2 mps 736 mmHg 96%
    05:00 +6°C° 0 mm 2 mps 736 mmHg 96%
    06:00 +7°C° 0 mm 2 mps 736 mmHg 94%
    07:00 +9°C° 0 mm 3 mps 736 mmHg 91%
    08:00 +10°C° 0 mm 3 mps 736 mmHg 88%
    09:00 +11°C° 0.4 mm 3 mps 736 mmHg 85%
    10:00 +13°C° 0.4 mm 3 mps 736 mmHg 81%
    11:00 +14°C° 0.4 mm 4 mps 735 mmHg 77%
    12:00 +14°C° 0.6 mm 4 mps 735 mmHg 74%
    13:00 +15°C° 0.6 mm 4 mps 735 mmHg 72%
    14:00 +17°C° 0.6 mm 4 mps 735 mmHg 69%
    15:00 +17°C° 0.4 mm 4 mps 735 mmHg 70%
    16:00 +17°C° 0.4 mm 3 mps 735 mmHg 70%
    17:00 +17°C° 0.4 mm 3 mps 735 mmHg 71%
    18:00 +15°C° 0.2 mm 2 mps 734 mmHg 77%
    19:00 +14°C° 0.2 mm 2 mps 734 mmHg 82%
    20:00 +13°C° 0.2 mm 1 mps 734 mmHg 88%
    21:00 +12°C° 0 mm 1 mps 734 mmHg 89%
    22:00 +11°C° 0 mm 1 mps 734 mmHg 90%
    23:00 +10°C° 0 mm 1 mps 734 mmHg 90%

    Tomorrow, 5 June, Friday

    Time Temperature Precipitation Wind Pressure Humidity
    00:00 +10°C° 0 mm 1 mps 734 mmHg 91%
    01:00 +10°C° 0 mm 1 mps 734 mmHg 92%
    02:00 +10°C° 0 mm 1 mps 734 mmHg 92%
    03:00 +10°C° 0 mm 1 mps 734 mmHg 93%
    04:00 +9°C° 0 mm 2 mps 734 mmHg 95%
    05:00 +9°C° 0 mm 2 mps 734 mmHg 96%
    06:00 +12°C° 0 mm 2 mps 734 mmHg 93%
    07:00 +13°C° 0 mm 3 mps 734 mmHg 91%
    08:00 +16°C° 0 mm 3 mps 734 mmHg 88%
    09:00 +17°C° 0 mm 4 mps 734 mmHg 86%
    10:00 +18°C° 0 mm 4 mps 735 mmHg 84%
    11:00 +17°C° 0 mm 5 mps 735 mmHg 81%
    12:00 +19°C° 0.1 mm 5 mps 735 mmHg 79%
    13:00 +19°C° 0.1 mm 5 mps 735 mmHg 77%
    14:00 +19°C° 0.1 mm 5 mps 735 mmHg 75%
    15:00 +20°C° 0.2 mm 5 mps 735 mmHg 75%
    16:00 +21°C° 0.2 mm 5 mps 735 mmHg 76%
    17:00 +22°C° 0.2 mm 5 mps 735 mmHg 76%
    18:00 +21°C° 0.5 mm 4 mps 735 mmHg 80%
    19:00 +19°C° 0.5 mm 4 mps 735 mmHg 84%
    20:00 +18°C° 0.5 mm 3 mps 736 mmHg 88%
    21:00 +17°C° 0 mm 3 mps 736 mmHg 90%
    22:00 +16°C° 0 mm 3 mps 736 mmHg 91%
    23:00 +16°C° 0 mm 3 mps 736 mmHg 93%

    Day after tomorrow, 6 June, Saturday

    Time Temperature Precipitation Wind Pressure Humidity
    00:00 +14°C° 0 mm 3 mps 736 mmHg 93%
    01:00 +14°C° 0 mm 3 mps 736 mmHg 93%
    02:00 +14°C° 0 mm 3 mps 736 mmHg 93%
    03:00 +14°C° 0.1 mm 3 mps 737 mmHg 92%
    04:00 +14°C° 0.1 mm 3 mps 737 mmHg 91%
    05:00 +14°C° 0.1 mm 3 mps 737 mmHg 90%
    06:00 +15°C° 0 mm 4 mps 737 mmHg 88%
    07:00 +17°C° 0 mm 4 mps 738 mmHg 85%
    08:00 +17°C° 0 mm 5 mps 738 mmHg 83%
    09:00 +18°C° 0.4 mm 4 mps 739 mmHg 85%
    10:00 +18°C° 0.4 mm 3 mps 739 mmHg 87%
    11:00 +18°C° 0.4 mm 3 mps 740 mmHg 89%
    12:00 +19°C° 0.3 mm 3 mps 740 mmHg 87%
    13:00 +20°C° 0.3 mm 3 mps 740 mmHg 84%
    14:00 +21°C° 0.3 mm 4 mps 741 mmHg 82%
    15:00 +21°C° 0.4 mm 3 mps 741 mmHg 79%
    16:00 +21°C° 0.4 mm 3 mps 741 mmHg 76%
    17:00 +23°C° 0.4 mm 2 mps 741 mmHg 73%
    18:00 +20°C° 0 mm 2 mps 741 mmHg 78%
    19:00 +19°C° 0 mm 2 mps 741 mmHg 82%
    20:00 +19°C° 0 mm 1 mps 742 mmHg 87%
    21:00 +18°C° 0 mm 1 mps 742 mmHg 88%
    22:00 +16°C° 0 mm 1 mps 742 mmHg 89%
    23:00 +15°C° 0 mm 1 mps 743 mmHg 91%

    7 June, Sunday

    Time Temperature Precipitation Wind Pressure Humidity
    00:00 +15°C° 0 mm 1 mps 743 mmHg 91%
    01:00 +15°C° 0 mm 1 mps 743 mmHg 91%
    02:00 +15°C° 0 mm 1 mps 743 mmHg 91%
    03:00 +15°C° 0 mm 2 mps 743 mmHg 92%
    04:00 +15°C° 0 mm 2 mps 743 mmHg 92%
    05:00 +16°C° 0 mm 3 mps 743 mmHg 93%
    06:00 +16°C° 0.5 mm 3 mps 743 mmHg 93%
    07:00 +17°C° 0.5 mm 3 mps 743 mmHg 93%
    08:00 +18°C° 0.5 mm 3 mps 743 mmHg 93%
    09:00 +19°C° 0.2 mm 3 mps 743 mmHg 88%
    10:00 +21°C° 0.2 mm 4 mps 743 mmHg 82%
    11:00 +23°C° 0.2 mm 5 mps 744 mmHg 77%
    12:00 +25°C° 0.1 mm 5 mps 743 mmHg 72%
    13:00 +26°C° 0.1 mm 5 mps 743 mmHg 67%
    14:00 +27°C° 0.1 mm 5 mps 742 mmHg 62%
    15:00 +27°C° 0.1 mm 5 mps 742 mmHg 64%
    16:00 +26°C° 0.1 mm 5 mps 742 mmHg 67%
    17:00 +26°C° 0.1 mm 5 mps 742 mmHg 70%
    18:00 +23°C° 0.2 mm 4 mps 742 mmHg 75%
    19:00 +22°C° 0.2 mm 4 mps 742 mmHg 80%
    20:00 +20°C° 0.2 mm 3 mps 742 mmHg 86%
    21:00 +19°C° 0 mm 3 mps 742 mmHg 87%
    22:00 +19°C° 0 mm 3 mps 742 mmHg 88%
    23:00 +18°C° 0 mm 3 mps 743 mmHg 89%

    8 June, Monday

    Time Temperature Precipitation Wind Pressure Humidity
    00:00 +17°C° 0 mm 2 mps 742 mmHg 89%
    01:00 +17°C° 0 mm 2 mps 742 mmHg 90%
    02:00 +16°C° 0 mm 2 mps 742 mmHg 90%
    03:00 +16°C° 0.1 mm 2 mps 742 mmHg 91%
    04:00 +16°C° 0.1 mm 2 mps 742 mmHg 92%
    05:00 +17°C° 0.1 mm 3 mps 741 mmHg 93%
    06:00 +18°C° 0 mm 3 mps 741 mmHg 89%
    07:00 +19°C° 0 mm 3 mps 741 mmHg 84%
    08:00 +21°C° 0 mm 3 mps 741 mmHg 80%
    09:00 +22°C° 1.1 mm 3 mps 741 mmHg 77%
    10:00 +23°C° 1.1 mm 4 mps 741 mmHg 74%
    11:00 +26°C° 1.1 mm 4 mps 741 mmHg 72%
    12:00 +26°C° 0.9 mm 4 mps 741 mmHg 71%
    13:00 +26°C° 0.9 mm 4 mps 740 mmHg 70%
    14:00 +26°C° 0.9 mm 4 mps 740 mmHg 69%
    15:00 +26°C° 0.9 mm 4 mps 740 mmHg 71%
    16:00 +26°C° 0.9 mm 3 mps 740 mmHg 73%
    17:00 +25°C° 0.9 mm 3 mps 740 mmHg 76%
    18:00 +24°C° 0.3 mm 3 mps 740 mmHg 80%
    19:00 +22°C° 0.3 mm 3 mps 740 mmHg 85%
    20:00 +21°C° 0.3 mm 2 mps 740 mmHg 90%
    21:00 +20°C° 0.2 mm 2 mps 740 mmHg 90%
    22:00 +19°C° 0.2 mm 2 mps 740 mmHg 91%
    23:00 +18°C° 0.2 mm 2 mps 740 mmHg 92%

    9 June, Tuesday

    Time Temperature Precipitation Wind Pressure Humidity
    00:00 +18°C° 0 mm 2 mps 740 mmHg 92%
    01:00 +18°C° 0 mm 2 mps 741 mmHg 93%
    02:00 +17°C° 0 mm 2 mps 741 mmHg 93%
    03:00 +17°C° 0 mm 2 mps 741 mmHg 95%
    04:00 +17°C° 0 mm 2 mps 741 mmHg 96%
    05:00 +17°C° 0 mm 3 mps 742 mmHg 97%
    06:00 +17°C° 0 mm 3 mps 742 mmHg 96%
    07:00 +18°C° 0 mm 3 mps 742 mmHg 94%
    08:00 +19°C° 0 mm 3 mps 743 mmHg 93%
    09:00 +19°C° 0 mm 3 mps 743 mmHg 91%
    10:00 +20°C° 0 mm 3 mps 743 mmHg 88%
    11:00 +20°C° 0 mm 3 mps 744 mmHg 86%
    12:00 +21°C° 0 mm 2 mps 744 mmHg 82%
    13:00 +21°C° 0 mm 2 mps 744 mmHg 79%
    14:00 +23°C° 0 mm 2 mps 744 mmHg 75%
    15:00 +23°C° 0 mm 2 mps 744 mmHg 75%
    16:00 +23°C° 0 mm 2 mps 744 mmHg 76%
    17:00 +23°C° 0 mm 2 mps 744 mmHg 76%
    18:00 +21°C° 0 mm 2 mps 744 mmHg 81%
    19:00 +20°C° 0 mm 2 mps 744 mmHg 86%
    20:00 +19°C° 0 mm 2 mps 744 mmHg 91%
    21:00 +18°C° 0 mm 2 mps 744 mmHg 93%
    22:00 +17°C° 0 mm 2 mps 744 mmHg 94%
    23:00 +16°C° 0 mm 2 mps 744 mmHg 96%
    Show more